STARLINK-32227, 60361

Orbit data source: Space-Track

STARLINK-32227, 60361 is a payload satellite owned by SpaceX/Seattle (US) in LEO that was launched on Sun, 04 Aug 2024 UTC via an FALCON 9 launch vehicle from the Air Force Western Test Range (AFWTR). Payload-class satellites include a variety of spacecraft equipped with specific instruments for various scientific and technological missions. These include communications satellites like Starlink; space stations such as the ISS; scientific satellites like the Hubble; Earth observation satellites from companies like Planet Labs, Umbra, and HawkEye 360; GPS; miniature CubeSats for education and research; and military/defense satellites.

Loading next visibility...
Identifier
60361, 2024-138G
Orbit
LEO
Country
Flag of USUS
Related business
Manufacturer
SpaceX/Seattle
Mission
Operational Commercial Communications
Bus & Motor
STARLINK V2M, Unknown motor
Mass
730 kg wet, ~700 kg dry
Launch date (UTC)
2024-08-04 (1 year ago)
Launch vehicle
FALCON 9
Launch site
Air Force Western Test Range (AFWTR)
Object type
Payload
Rocket body
Debris
Shape & HBR
Box + 2 Pan, 17.7 m
Radar Cross Section
33.884 m², Large (>1 m²)

Expand to show TLE details & history
Last TLE update: 17 hours ago

TLE from 17 hours ago
0 STARLINK-32227
1 60361U 24138G   25353.61189065  .00001874  00000-0  75378-4 0  9992
2 60361  53.1619 321.8103 0001175  86.7089 273.4046 15.30201640 78376
Epoch: 2025-12-19T14:41Z
TLE epoch observation values (Epoch: 2025-12-19T14:41:07.352Z)
Latitude
-0.00002°
Longitude
13.0791°
Altitude
476.062 km
Speed
7.629 km/s
True Right ascension
21h 27m 14s
True Declination
0° 00' 00"
Sunlit
Object was in daylight at epoch
Visualization orbit readout
Latitude
Unknown
Longitude
Unknown
Altitude
Unknown
Speed
Unknown
Apparent Right ascension
Unknown
Apparent Declination
Unknown
Sunlit
N/A
Visualization observer readout
Local Sidereal Time
06:20:47
Azimuth
Unknown
Elevation
Unknown
Doppler factor
Unknown
Orbital elements
Apogee altitude
476.272 km
Perigee altitude
474.661 km
Semi-major axis
6,853.603 km
Eccentricity
0.00012
Inclination
53.1619°
RAAN
321.8103°
Arg. of periapsis
86.7089°
True anomaly
273.39116°
Mean anomaly
273.4046°
Eccentric anomaly
273.39788°
Mean motion
3.82529 °/min
Orbital period
94.11 mins
BSTAR
0.000075378
Loading maneuver chart data...
Computing Atmospheric mass density...
Loading historical data...
Loading historical data...
Loading historical data...
Loading historical data...
Loading historical data...
Loading historical data...
Loading historical data...

Documentation

Showing up to 5 results
|